Weather History for KLAF - August, 2013

Change the Weather History Date:

Saturday, August 24, 2013

  Actual Average Record
Temperature  
Mean Temperature 71 °F 73 °F  
Max Temperature 85 °F 84 °F 93 °F (2007)
Min Temperature 57 °F 62 °F 46 °F (1966)
Degree Days  
Heating Degree Days 0 0  
Month to date heating degree days 11 0  
Since 1 June heating degree days 38 23  
Since 1 July heating degree days 20 1  
Cooling Degree Days 6 8  
Month to date cooling degree days 132 210  
Year to date cooling degree days 635 801  
Since 1 June cooling degree days 534 724  
Growing Degree Days 20 (Base 50)    
Moisture  
Dew Point 55 °F    
Average Humidity 62    
Maximum Humidity 93    
Minimum Humidity 31    
Precipitation  
Precipitation 0.00 in 0.11 in 1.42 in (1982)
Month to date precipitation 1.74 2.70  
Year to date precipitation 27.28 24.79  
Sea Level Pressure  
Sea Level Pressure 30.22 in    
Wind  
Wind Speed 5 mph (ENE)    
Max Wind Speed 13 mph    
Max Gust Speed 16 mph    
Visibility 10 miles    
Events      
T = Trace of Precipitation, MM = Missing Value Source: NWS Daily Summary

Daily Weather History Graph

Daily Weather History Graph

Search for Another Location

Airport or City:

Trip Planner

Search our weather history database for the weather conditions in past years. The results will help you decide how hot, cold, wet, or windy it might be!

Date:

Astronomy

Aug. 24, 2013 Rise Set
Actual Time 7:07 AM EDT 8:31 PM EDT
Civil Twilight 6:39 AM EDT 9:00 PM EDT
Nautical Twilight 6:04 AM EDT 9:34 PM EDT
Astronomical Twilight 5:28 AM EDT 10:10 PM EDT
Moon 10:24 PM EDT (8/24) 11:07 AM EDT (8/24)
Length of Visible Light 14h 21m
Length of Day
13h 24m
Waning Gibbous, 84% of the Moon is Illuminated
Aug 24
Waning Gibbous
Aug 28
Last Quarter
Sep 5
New
Sep 12
First Quarter
Sep 19
Full

Hourly Weather History & Observations

Time (EDT) Temp. Heat Index Dew Point Humidity Pressure Visibility Wind Dir Wind Speed Gust Speed Precip Events Conditions
12:54 AM 66.9 °F - 60.1 °F 79% 30.16 in 10.0 mi ENE 4.6 mph - N/A   Clear
1:54 AM 66.0 °F - 59.0 °F 78% 30.16 in 10.0 mi ENE 6.9 mph - N/A   Clear
2:54 AM 64.0 °F - 57.9 °F 80% 30.16 in 10.0 mi ENE 5.8 mph - N/A   Clear
3:54 AM 62.1 °F - 57.0 °F 84% 30.17 in 10.0 mi NE 4.6 mph - N/A   Clear
4:54 AM 60.1 °F - 57.0 °F 90% 30.19 in 10.0 mi Calm Calm - N/A   Clear
5:54 AM 57.0 °F - 55.9 °F 96% 30.21 in 10.0 mi Calm Calm - N/A   Clear
6:54 AM 59.0 °F - 55.9 °F 90% 30.23 in 10.0 mi Calm Calm - N/A   Clear
7:54 AM 59.0 °F - 57.0 °F 93% 30.25 in 10.0 mi Calm Calm - N/A   Clear
8:54 AM 64.0 °F - 59.0 °F 84% 30.26 in 10.0 mi East 4.6 mph - N/A   Clear
9:54 AM 71.1 °F - 55.9 °F 59% 30.26 in 10.0 mi ESE 5.8 mph - N/A   Clear
10:54 AM 77.0 °F - 55.0 °F 47% 30.26 in 10.0 mi East 9.2 mph - N/A   Clear
11:54 AM 80.1 °F 79.9 °F 53.1 °F 39% 30.25 in 10.0 mi ESE 11.5 mph - N/A   Clear
12:54 PM 81.0 °F 80.4 °F 53.1 °F 38% 30.26 in 10.0 mi East 6.9 mph - N/A   Clear
1:54 PM 82.0 °F - 52.0 °F 35% 30.25 in 10.0 mi East 5.8 mph - N/A   Clear
2:54 PM 84.0 °F - 52.0 °F 33% 30.24 in 10.0 mi ENE 8.1 mph - N/A   Clear
3:54 PM 82.9 °F - 50.0 °F 32% 30.22 in 10.0 mi ENE 10.4 mph - N/A   Clear
4:54 PM 82.9 °F - 48.0 °F 29% 30.22 in 10.0 mi North 6.9 mph - N/A   Clear
5:54 PM 82.9 °F - 51.1 °F 33% 30.22 in 10.0 mi NNE 6.9 mph - N/A   Clear
6:54 PM 80.1 °F - 51.1 °F 36% 30.22 in 10.0 mi ESE 6.9 mph - N/A   Clear
7:54 PM 75.0 °F - 53.1 °F 46% 30.21 in 10.0 mi ESE 4.6 mph - N/A   Clear
8:54 PM 68.0 °F - 55.9 °F 65% 30.21 in 10.0 mi NE 3.5 mph - N/A   Clear
9:54 PM 64.9 °F - 57.0 °F 75% 30.23 in 10.0 mi Calm Calm - N/A   Clear
10:54 PM 64.0 °F - 57.9 °F 80% 30.23 in 10.0 mi Calm Calm - N/A   Clear
11:54 PM 62.1 °F - 57.9 °F 86% 30.23 in 10.0 mi Calm Calm - N/A   Clear